Skip Page Navigation
NASA JPL Caltech
NASA Logo - Jet Propulsion Laboratory + View the NASA Portal
+ Near-Earth Object (NEO) Program
Search JPL
JPL Home Earth Solar System Stars & Galaxies Technology
JPL Solar System Dynamics
BODIES ORBITS EPHEMERIDES TOOLS PHYSICAL DATA DISCOVERY FAQ SITE MAP
JPL Small-Body Database Browser
Search: [ help ]  
231786 (2000 CU97)
Classification: Main-belt Asteroid          SPK-ID: 2231786
Ephemeris | Orbit Diagram | Orbital Elements | Physical Parameters | Discovery Circumstances | Close-Approach Data ]

[ show orbit diagram ]
Orbital Elements at Epoch 2457000.5 (2014-Dec-09.0) TDB
Reference: JPL 3 (heliocentric ecliptic J2000)
 Element Value Uncertainty (1-sigma)   Units 
e .1874313920526754 1.1677e-07  
a 2.230502943978942 3.2259e-08 AU
q 1.812436672211378 2.422e-07 AU
i 3.802173627002694 1.1155e-05 deg
node 137.1722309989568 0.000126 deg
peri 261.7993112214132 0.0001339 deg
M 243.5271001193315 3.452e-05 deg
tp 2457394.163378833819
(2016-Jan-06.66337883)
0.00011777 JED
period 1216.753566927346
3.33
2.6397e-05
7.227e-08
d
yr
n .2958692785336179 6.4186e-09 deg/d
Q 2.648569215746506 3.8306e-08 AU
  Orbit Determination Parameters
   # obs. used (total)      131  
   data-arc span      6820 days (18.67 yr)  
   first obs. used      1995-08-30  
   last obs. used      2014-05-02  
   planetary ephem.      DE431  
   SB-pert. ephem.      SB431-BIG16  
   condition code      0  
   fit RMS      .54104  
   data source      ORB  
   producer      Otto Matic  
   solution date      2014-Jun-12 00:12:32  

Additional Information
 Earth MOID = .824448 AU 
 T_jup = 3.616 
[ show covariance matrix ]

Ephemeris | Orbit Diagram | Orbital Elements | Physical Parameters | Discovery Circumstances | Close-Approach Data ]

Physical Parameter Table
Parameter Symbol Value Units Sigma Reference Notes
absolute magnitude H 17.5 mag n/a MPO251638  

231786 (2000 CU97)          Discovered 2000-Feb-09 by McNaught, R. H. at Siding Spring (413)
Reference: 20100228/Numbers.arcLast Updated: 2010-03-03

[ show close-approach data ]
Alternate Designations
 2000 CU97 = 2000 DY17 
Ephemeris | Orbit Diagram | Orbital Elements | Physical Parameters | Discovery Circumstances | Close-Approach Data ]
ABOUT SSD CREDITS/AWARDS PRIVACY/COPYRIGHT GLOSSARY LINKS
FirstGov 2014-Nov-22 14:14 UT
(server date/time)  
NASA Home Page
Site Manager:   Donald K. Yeomans
Webmaster  Alan B. Chamberlin